SAS2828 OLBA-EKCH

Flight info

Callsign SAS2828
Flight time N/A
Altitude 36000
Route BALMA DCT VESAR UL619 MAKOL DCT ARGES DCT MOBRA DCT KARIL/N0441F380 DCT KEKED DCT REGTO DCT MAKOV DCT ARKUG DCT ELPOL DCT TIDVU
Aircraft A320/M-SDE3FGHIRWY/LB1

Departure

Time N/A
Airport Beirut Rafic Hariri International Airport (OLBA)

Arrival

Time 2026-04-23 03:48
Airport Copenhagen Kastrup Airport (EKCH)
Time Latitude Longitude Altitude Speed Heading
2026-04-23 02:33 51.63840 18.66327 36187 ft 438 kts 335°
2026-04-23 02:33 51.69135 18.61394 36192 ft 437 kts 335°
2026-04-23 02:34 51.74437 18.56441 36197 ft 437 kts 335°
2026-04-23 02:34 51.79741 18.51478 36190 ft 437 kts 335°
2026-04-23 02:35 51.85007 18.46540 36194 ft 438 kts 335°
2026-04-23 02:35 51.90267 18.41594 36199 ft 437 kts 335°
2026-04-23 02:36 51.95531 18.36624 36189 ft 438 kts 335°
2026-04-23 02:36 52.00824 18.31608 36192 ft 438 kts 335°
2026-04-23 02:37 52.06090 18.26629 36199 ft 438 kts 335°
2026-04-23 02:37 52.11350 18.21630 36204 ft 438 kts 335°
2026-04-23 02:38 52.16646 18.16571 36206 ft 438 kts 335°
2026-04-23 02:38 52.21903 18.11535 36205 ft 438 kts 335°
2026-04-23 02:39 52.27160 18.06498 36193 ft 438 kts 335°
2026-04-23 02:39 52.32419 18.01447 36202 ft 438 kts 335°
2026-04-23 02:40 52.37710 17.96350 36194 ft 438 kts 335°
2026-04-23 02:40 52.42953 17.91271 36196 ft 438 kts 335°
2026-04-23 02:41 52.48237 17.86140 36209 ft 439 kts 335°
2026-04-23 02:41 52.53497 17.81028 36199 ft 439 kts 335°
2026-04-23 02:42 52.57856 17.76780 36200 ft 439 kts 335°
2026-04-23 02:42 52.63108 17.71645 36180 ft 438 kts 335°
2026-04-23 02:43 52.68350 17.66512 36175 ft 438 kts 335°
2026-04-23 02:43 52.73623 17.61323 36182 ft 438 kts 335°
2026-04-23 02:44 52.78851 17.56159 36187 ft 438 kts 335°
2026-04-23 02:44 52.84083 17.50988 36188 ft 438 kts 335°
2026-04-23 02:45 52.89321 17.45803 36187 ft 439 kts 335°
2026-04-23 02:45 52.94595 17.40565 36176 ft 439 kts 335°
2026-04-23 02:46 52.99830 17.35349 36170 ft 439 kts 335°
2026-04-23 02:46 53.05065 17.30101 36176 ft 440 kts 334°
2026-04-23 02:47 53.10303 17.24830 36184 ft 440 kts 334°
2026-04-23 02:47 53.15545 17.19562 36183 ft 440 kts 334°
2026-04-23 02:48 53.20792 17.14285 36197 ft 440 kts 334°
2026-04-23 02:48 53.26072 17.08948 36182 ft 440 kts 334°
2026-04-23 02:49 53.31306 17.03634 36182 ft 441 kts 334°
2026-04-23 02:49 53.36548 16.98304 36193 ft 441 kts 334°
2026-04-23 02:50 53.41791 16.92959 36199 ft 441 kts 334°
2026-04-23 02:50 53.47028 16.87581 36206 ft 441 kts 334°
2026-04-23 02:51 53.52295 16.82159 36209 ft 441 kts 334°
2026-04-23 02:51 53.57491 16.76653 36175 ft 441 kts 333°
2026-04-23 02:52 53.62665 16.71086 36186 ft 442 kts 333°
2026-04-23 02:52 53.67845 16.65513 36195 ft 442 kts 333°
2026-04-23 02:53 53.73071 16.59920 36211 ft 442 kts 334°
2026-04-23 02:53 53.78254 16.54358 36213 ft 442 kts 333°
2026-04-23 02:54 53.83513 16.48672 36230 ft 442 kts 333°
2026-04-23 02:54 53.88696 16.43066 36192 ft 442 kts 334°
2026-04-23 02:55 53.93883 16.37449 36213 ft 443 kts 334°
2026-04-23 02:55 53.99075 16.31788 36224 ft 443 kts 333°
2026-04-23 02:56 54.04300 16.26070 36230 ft 444 kts 333°
2026-04-23 02:56 54.09492 16.20380 36245 ft 444 kts 333°
2026-04-23 02:57 54.14677 16.14685 36248 ft 444 kts 333°
2026-04-23 02:57 54.20004 16.08802 36233 ft 444 kts 334°
2026-04-23 02:58 54.25196 16.03064 36226 ft 445 kts 334°
2026-04-23 02:58 54.30398 15.97303 36229 ft 445 kts 334°
2026-04-23 02:59 54.35634 15.91477 36227 ft 446 kts 334°
2026-04-23 02:59 54.40839 15.85663 36233 ft 446 kts 334°
2026-04-23 03:00 54.46043 15.79844 36235 ft 446 kts 334°
2026-04-23 03:00 54.50396 15.74971 36214 ft 447 kts 334°
2026-04-23 03:01 54.55621 15.69083 36223 ft 449 kts 334°
2026-04-23 03:01 54.60661 15.62500 36217 ft 461 kts 321°
2026-04-23 03:02 54.64609 15.53577 36213 ft 471 kts 311°
2026-04-23 03:02 54.68327 15.44295 36213 ft 472 kts 311°
2026-04-23 03:03 54.72082 15.34919 36211 ft 473 kts 311°
2026-04-23 03:03 54.75829 15.25548 36203 ft 474 kts 310°
2026-04-23 03:04 54.79567 15.16135 36209 ft 474 kts 310°
2026-04-23 03:04 54.83297 15.06696 36221 ft 475 kts 310°
2026-04-23 03:05 54.87034 14.97232 36193 ft 476 kts 311°
2026-04-23 03:05 54.90796 14.87664 36202 ft 477 kts 310°
2026-04-23 03:06 54.94528 14.78113 36206 ft 478 kts 310°
2026-04-23 03:06 54.98266 14.68509 36210 ft 479 kts 310°
2026-04-23 03:07 55.02001 14.58894 36204 ft 480 kts 310°
2026-04-23 03:07 55.05757 14.49181 36212 ft 480 kts 310°
2026-04-23 03:08 55.09489 14.39499 36216 ft 480 kts 310°
2026-04-23 03:08 55.13210 14.29811 36203 ft 481 kts 310°
2026-04-23 03:09 55.16928 14.20072 36205 ft 482 kts 309°
2026-04-23 03:09 55.20643 14.10306 36218 ft 482 kts 309°
2026-04-23 03:10 55.24378 14.00450 36229 ft 482 kts 309°
2026-04-23 03:10 55.28108 13.90568 36219 ft 483 kts 309°
2026-04-23 03:11 55.31808 13.80735 36234 ft 483 kts 309°
2026-04-23 03:11 55.35501 13.70882 36243 ft 483 kts 309°
2026-04-23 03:12 55.39207 13.60945 36254 ft 483 kts 309°
2026-04-23 03:12 55.42877 13.51043 36252 ft 483 kts 308°
2026-04-23 03:13 55.46527 13.41116 36232 ft 480 kts 308°
2026-04-23 03:13 55.50165 13.31210 35740 ft 484 kts 309°
2026-04-23 03:13 55.51992 13.26180 34982 ft 480 kts 309°
2026-04-23 03:14 55.53761 13.21219 34265 ft 474 kts 309°
2026-04-23 03:14 55.55489 13.16300 33469 ft 468 kts 308°
2026-04-23 03:14 55.57199 13.11465 32665 ft 462 kts 308°
2026-04-23 03:14 55.58906 13.06702 31903 ft 455 kts 308°
2026-04-23 03:15 55.60632 13.01953 31125 ft 449 kts 308°
2026-04-23 03:15 55.62319 12.97359 30347 ft 443 kts 308°
2026-04-23 03:15 55.63987 12.92806 29486 ft 439 kts 308°
2026-04-23 03:15 55.65643 12.88299 28647 ft 434 kts 308°
2026-04-23 03:16 55.67292 12.83854 27845 ft 428 kts 308°
2026-04-23 03:16 55.68931 12.79487 27056 ft 422 kts 308°
2026-04-23 03:16 55.72152 12.71048 25552 ft 410 kts 308°
2026-04-23 03:17 55.73782 12.66853 24807 ft 404 kts 308°
2026-04-23 03:17 55.75377 12.62796 24112 ft 397 kts 308°
2026-04-23 03:17 55.76978 12.58766 23308 ft 390 kts 308°
2026-04-23 03:17 55.78527 12.54876 22495 ft 384 kts 308°
2026-04-23 03:18 55.80054 12.51028 21695 ft 377 kts 308°
2026-04-23 03:18 55.81549 12.47253 20912 ft 370 kts 308°
2026-04-23 03:18 55.83008 12.43547 20149 ft 363 kts 308°
2026-04-23 03:18 55.84443 12.39888 19404 ft 357 kts 308°
2026-04-23 03:19 55.85848 12.36296 18680 ft 351 kts 308°
2026-04-23 03:19 55.87248 12.32715 17875 ft 345 kts 308°
2026-04-23 03:19 55.88609 12.29228 17071 ft 340 kts 308°
2026-04-23 03:19 55.89950 12.25785 16300 ft 335 kts 308°
2026-04-23 03:20 55.91268 12.22397 15542 ft 331 kts 308°
2026-04-23 03:20 55.92570 12.19043 14796 ft 326 kts 308°
2026-04-23 03:20 55.93851 12.15739 14068 ft 322 kts 308°
2026-04-23 03:20 55.95118 12.12466 13257 ft 318 kts 308°
2026-04-23 03:21 55.96367 12.09241 12481 ft 314 kts 308°
2026-04-23 03:21 55.97605 12.06047 11717 ft 310 kts 308°
2026-04-23 03:21 55.98828 12.02896 10966 ft 307 kts 308°
2026-04-23 03:21 56.00034 11.99778 10239 ft 303 kts 308°
2026-04-23 03:22 56.01223 11.96699 9526 ft 297 kts 308°
2026-04-23 03:22 56.02362 11.93768 9331 ft 275 kts 308°
2026-04-23 03:22 56.03399 11.91074 9305 ft 251 kts 308°
2026-04-23 03:22 56.04331 11.88618 9305 ft 227 kts 308°
2026-04-23 03:23 56.05196 11.86318 9312 ft 221 kts 308°
2026-04-23 03:23 56.06049 11.84042 9311 ft 220 kts 308°
2026-04-23 03:23 56.06902 11.81764 9311 ft 220 kts 308°
2026-04-23 03:23 56.07755 11.79488 9312 ft 220 kts 308°
2026-04-23 03:24 56.08498 11.77090 9314 ft 224 kts 291°
2026-04-23 03:24 56.08657 11.75192 9201 ft 232 kts 270°
2026-04-23 03:24 56.08142 11.72483 9162 ft 235 kts 235°
2026-04-23 03:24 56.06850 11.70749 9969 ft 232 kts 201°
2026-04-23 03:25 56.05181 11.70234 9904 ft 252 kts 171°
2026-04-23 03:25 56.03602 11.71436 9422 ft 248 kts 134°
2026-04-23 03:25 56.02526 11.73805 9050 ft 243 kts 117°
2026-04-23 03:25 56.01683 11.76365 8979 ft 237 kts 114°
2026-04-23 03:26 56.00894 11.78953 8923 ft 237 kts 114°
2026-04-23 03:26 56.00109 11.81543 8866 ft 237 kts 114°
2026-04-23 03:26 55.99312 11.84130 8812 ft 237 kts 115°
2026-04-23 03:26 55.98507 11.86697 8755 ft 237 kts 115°
2026-04-23 03:27 55.97693 11.89256 8695 ft 237 kts 115°
2026-04-23 03:27 55.96873 11.91804 8646 ft 237 kts 116°
2026-04-23 03:27 55.96045 11.94353 8587 ft 237 kts 116°
2026-04-23 03:27 55.95218 11.96891 8548 ft 237 kts 116°
2026-04-23 03:28 55.94387 11.99432 8494 ft 237 kts 116°
2026-04-23 03:28 55.93546 12.02000 8440 ft 237 kts 116°
2026-04-23 03:28 55.92726 12.04503 8392 ft 236 kts 116°
2026-04-23 03:28 55.91884 12.07065 8330 ft 237 kts 116°
2026-04-23 03:29 55.91052 12.09598 8277 ft 237 kts 116°
2026-04-23 03:29 55.90221 12.12133 8225 ft 237 kts 116°
2026-04-23 03:29 55.89389 12.14669 8168 ft 237 kts 116°
2026-04-23 03:29 55.88558 12.17196 8124 ft 236 kts 116°
2026-04-23 03:30 55.87726 12.19719 8069 ft 235 kts 116°
2026-04-23 03:30 55.86897 12.22233 8008 ft 235 kts 116°
2026-04-23 03:30 55.86070 12.24734 7953 ft 235 kts 116°
2026-04-23 03:30 55.85242 12.27242 7886 ft 235 kts 116°
2026-04-23 03:31 55.84412 12.29742 7840 ft 235 kts 116°
2026-04-23 03:31 55.83578 12.32249 7784 ft 234 kts 116°
2026-04-23 03:31 55.82749 12.34737 7730 ft 234 kts 116°
2026-04-23 03:31 55.81920 12.37229 7677 ft 234 kts 116°
2026-04-23 03:32 55.81091 12.39723 7617 ft 234 kts 116°
2026-04-23 03:32 55.80265 12.42206 7570 ft 234 kts 116°
2026-04-23 03:32 55.79436 12.44697 7516 ft 234 kts 116°
2026-04-23 03:32 55.78606 12.47184 7478 ft 234 kts 116°
2026-04-23 03:33 55.77774 12.49681 7432 ft 234 kts 116°
2026-04-23 03:33 55.76934 12.52202 7374 ft 234 kts 116°
2026-04-23 03:33 55.76105 12.54681 7321 ft 234 kts 116°
2026-04-23 03:33 55.75272 12.57170 7268 ft 234 kts 116°
2026-04-23 03:34 55.74442 12.59644 7215 ft 233 kts 116°
2026-04-23 03:34 55.73609 12.62124 7165 ft 234 kts 116°
2026-04-23 03:34 55.72779 12.64595 7109 ft 234 kts 116°
2026-04-23 03:34 55.71944 12.67072 7067 ft 234 kts 116°
2026-04-23 03:35 55.71110 12.69543 7015 ft 234 kts 116°
2026-04-23 03:35 55.70275 12.72014 6958 ft 233 kts 116°
2026-04-23 03:35 55.69441 12.74483 6907 ft 234 kts 116°
2026-04-23 03:35 55.68596 12.76949 6856 ft 234 kts 118°
2026-04-23 03:36 55.67713 12.79375 6808 ft 234 kts 118°
2026-04-23 03:36 55.66816 12.81781 6756 ft 234 kts 119°
2026-04-23 03:36 55.65903 12.84213 6705 ft 234 kts 119°
2026-04-23 03:36 55.65004 12.86616 6652 ft 234 kts 119°
2026-04-23 03:37 55.64110 12.89015 6582 ft 233 kts 119°
2026-04-23 03:37 55.63220 12.91409 6354 ft 233 kts 119°
2026-04-23 03:37 55.62320 12.93798 6065 ft 233 kts 120°
2026-04-23 03:37 55.61410 12.96166 5701 ft 235 kts 120°
2026-04-23 03:38 55.60457 12.98646 5042 ft 252 kts 120°
2026-04-23 03:38 55.59444 13.01277 4445 ft 264 kts 120°
2026-04-23 03:38 55.58407 13.03954 4184 ft 262 kts 121°
2026-04-23 03:38 55.57392 13.06567 3983 ft 256 kts 121°
2026-04-23 03:39 55.56382 13.09151 3768 ft 252 kts 121°
2026-04-23 03:39 55.55383 13.11612 3689 ft 242 kts 129°
2026-04-23 03:39 55.54061 13.13370 3542 ft 235 kts 157°
2026-04-23 03:39 55.52489 13.13955 3497 ft 231 kts 185°
2026-04-23 03:40 55.50954 13.13329 3442 ft 224 kts 213°
2026-04-23 03:40 55.49745 13.11693 3412 ft 216 kts 238°
2026-04-23 03:40 55.49032 13.09480 3366 ft 199 kts 260°
2026-04-23 03:40 55.48843 13.07186 3342 ft 181 kts 280°
2026-04-23 03:41 55.48966 13.05084 3315 ft 165 kts 284°
2026-04-23 03:41 55.49088 13.03126 3260 ft 152 kts 285°
2026-04-23 03:41 55.49198 13.01352 3208 ft 140 kts 286°
2026-04-23 03:41 55.49397 12.99746 3170 ft 130 kts 295°
2026-04-23 03:42 55.49722 12.98277 3112 ft 127 kts 303°
2026-04-23 03:42 55.50160 12.96924 3055 ft 127 kts 310°
2026-04-23 03:42 55.50652 12.95618 3016 ft 128 kts 309°
2026-04-23 03:42 55.51143 12.94301 3012 ft 129 kts 309°
2026-04-23 03:43 55.51638 12.92973 3016 ft 130 kts 308°
2026-04-23 03:43 55.52121 12.91629 3010 ft 129 kts 308°
2026-04-23 03:43 55.52610 12.90291 2998 ft 130 kts 308°
2026-04-23 03:43 55.53105 12.88953 2920 ft 130 kts 308°
2026-04-23 03:44 55.53598 12.87625 2795 ft 129 kts 308°
2026-04-23 03:44 55.54091 12.86301 2632 ft 129 kts 308°
2026-04-23 03:44 55.54588 12.84968 2465 ft 128 kts 308°
2026-04-23 03:44 55.55078 12.83656 2297 ft 128 kts 308°
2026-04-23 03:45 55.55566 12.82348 2123 ft 127 kts 308°
2026-04-23 03:45 55.56051 12.81045 1951 ft 127 kts 308°
2026-04-23 03:45 55.56537 12.79741 1782 ft 127 kts 307°
2026-04-23 03:45 55.57020 12.78443 1617 ft 126 kts 308°
2026-04-23 03:46 55.57506 12.77140 1439 ft 127 kts 307°
2026-04-23 03:46 55.57992 12.75833 1274 ft 127 kts 307°
2026-04-23 03:46 55.58475 12.74535 1094 ft 126 kts 306°
2026-04-23 03:46 55.58955 12.73244 928 ft 126 kts 306°
2026-04-23 03:47 55.59435 12.71953 762 ft 125 kts 304°
2026-04-23 03:47 55.59912 12.70667 602 ft 125 kts 304°
2026-04-23 03:47 55.60386 12.69389 418 ft 124 kts 304°
2026-04-23 03:47 55.60861 12.68109 253 ft 126 kts 304°
2026-04-23 03:48 55.61341 12.66814 93 ft 127 kts 305°
2026-04-23 03:48 55.61803 12.65580 20 ft 102 kts 303°
2026-04-23 03:48 55.61986 12.65073 18 ft 25 kts 309°
2026-04-23 03:48 55.62086 12.65044 22 ft 0 kts 21°
2026-04-23 03:49 55.62095 12.65050 22 ft 4 kts 21°
2026-04-23 03:50 55.62133 12.65078 24 ft 8 kts 24°
2026-04-23 03:50 55.62203 12.65032 24 ft 15 kts 309°
2026-04-23 03:50 55.62269 12.64847 28 ft 19 kts 303°
2026-04-23 03:50 55.62362 12.64778 23 ft 17 kts 357°
2026-04-23 03:51 55.62468 12.64776 21 ft 3 kts 358°
2026-04-23 03:51 55.62488 12.64811 21 ft 6 kts 63°
2026-04-23 03:51 55.62493 12.64866 20 ft 8 kts 86°
2026-04-23 03:51 55.62494 12.64910 20 ft 0 kts 87°